1498186800.78,50141,20.44,73770.3,4.85,3.37,2.89,0,*71
1498186802.01,50142,20.44,73790.0,4.85,3.33,2.89,0,*76
1498186803.24,50143,20.44,73772.0,4.87,3.45,2.99,0,*75
1498186804.43,50144,20.44,73782.3,4.85,3.45,2.95,0,*7C
1498186805.66,50145,20.44,73730.8,4.85,3.33,2.85,0,*7D
1498186806.89,50146,20.44,73752.0,4.81,3.07,2.59,0,*7C
1498186808.12,50147,20.44,73722.8,4.81,3.03,2.55,0,*75
1498186809.33,50148,20.44,73734.3,4.81,3.03,2.61,0,*7D
1498186810.53,50149,20.44,73756.3,4.81,2.95,2.59,0,*79
1498186811.76,50150,20.44,73766.0,4.81,3.03,2.55,0,*73
1498186812.97,50151,20.44,73784.3,4.81,3.07,2.61,0,*71
1498186814.2,50152,20.44,73770.3,4.81,3.07,2.69,0,*7A
1498186815.43,50153,20.44,73770.3,4.81,3.15,2.69,0,*78
1498186816.64,50154,20.44,73778.8,4.81,3.29,2.73,0,*7B
1498186817.84,50155,20.44,73784.0,4.85,3.29,2.73,0,*7E
1498186819.07,50156,20.44,73796.0,4.85,3.37,2.89,0,*77
1498186820.27,50157,20.44,73778.8,4.85,3.29,2.85,0,*75
1498186821.5,50158,20.44,73822.5,4.85,3.37,2.89,0,*79
1498186822.7,50159,20.44,73786.8,4.85,3.29,2.73,0,*72
1498186823.91,50160,20.44,73766.8,4.85,3.29,2.73,0,*78
1498186825.12,50161,20.44,73762.8,4.85,3.07,2.61,0,*76
1498186826.34,50162,20.44,73766.3,4.81,3.19,2.69,0,*76
1498186827.54,50163,20.44,73776.5,4.81,3.25,2.69,0,*78
1498186828.76,50164,20.44,73800.5,4.81,3.19,2.69,0,*70
1498186829.97,50165,20.44,73784.8,4.81,3.25,2.81,0,*78
1498186831.17,50166,20.44,73768.0,4.81,3.25,2.73,0,*76
1498186832.38,50167,20.44,73768.8,4.81,3.29,2.73,0,*7B
1498186833.58,50168,20.44,73784.3,4.85,3.29,2.73,0,*70
1498186834.84,50169,20.44,73788.0,4.87,3.11,2.73,0,*78
1498186836.04,50170,20.44,73722.8,4.85,3.29,2.85,0,*70
1498186837.3,50171,20.44,73728.8,4.87,3.11,2.73,0,*71
1498186838.51,50172,20.44,73740.8,4.85,3.07,2.65,0,*70
1498186839.72,50173,20.44,73732.8,4.85,2.95,2.51,0,*7C
1498186840.94,50174,20.44,73734.5,4.81,2.85,2.47,0,*79
1498186842.15,50175,20.44,73764.5,4.81,3.03,2.61,0,*73
1498186843.36,50176,20.44,73742.3,4.81,3.07,2.61,0,*74
1498186844.59,50177,20.44,73738.8,4.81,3.03,2.59,0,*7A
1498186845.83,50178,20.44,73760.0,4.81,3.07,2.59,0,*71
1498186847.04,50179,20.44,73748.5,4.81,3.07,2.61,0,*7B
1498186848.28,50180,20.44,73758.3,4.81,3.07,2.59,0,*76
1498186849.54,50181,20.44,73738.0,4.79,3.07,2.59,0,*70
1498186850.8,50182,20.44,73744.5,4.79,3.07,2.59,0,*73
1498186852.01,50183,20.44,73760.8,4.81,3.15,2.61,0,*7D
1498186853.21,50184,20.44,73744.5,4.81,2.95,2.55,0,*74
1498186854.45,50185,20.44,73772.8,4.81,3.07,2.59,0,*73
1498186855.68,50186,20.44,73748.3,4.81,3.15,2.59,0,*73
1498186856.94,50187,20.44,73728.3,4.79,3.15,2.59,0,*75
1498186858.2,50188,20.44,73754.8,4.79,3.07,2.59,0,*79
1498186859.44,50189,20.44,73788.0,4.81,3.07,2.59,0,*7F
1498186860.66,50190,20.44,73768.8,4.81,3.19,2.59,0,*78
1498186861.88,50191,20.44,73770.5,4.81,3.07,2.61,0,*7D
1498186863.12,50192,20.44,73762.0,4.79,3.15,2.61,0,*7A
1498186864.33,50193,20.44,73762.5,4.81,3.15,2.61,0,*7C
1498186865.55,50194,20.44,73758.8,4.81,3.19,2.69,0,*7F
1498186866.77,50195,20.44,73772.5,4.81,3.19,2.69,0,*7E
1498186867.99,50196,20.44,73752.0,4.81,3.15,2.61,0,*79
1498186869.2,50197,20.38,73768.3,4.81,3.15,2.61,0,*78
1498186870.43,50198,20.44,73758.8,4.81,3.19,2.73,0,*78
1498186871.66,50199,20.44,73754.5,4.81,3.15,2.69,0,*7E
1498186872.91,50200,20.44,73776.8,4.79,3.19,2.69,0,*76
1498186874.16,50201,20.44,73782.3,4.79,3.19,2.73,0,*7C
1498186875.36,50202,20.44,73778.3,4.81,3.29,2.85,0,*72
1498186876.59,50203,20.44,73796.0,4.81,3.33,2.81,0,*7C
1498186877.79,50204,20.38,73772.5,4.81,3.25,2.73,0,*71
1498186879.01,50205,20.38,73768.8,4.81,3.19,2.69,0,*74
1498186880.23,50206,20.38,73732.8,4.81,3.19,2.69,0,*77
1498186881.47,50207,20.38,73756.0,4.81,3.15,2.73,0,*71
1498186882.67,50208,20.44,73778.5,4.81,3.25,2.73,0,*7D
1498186883.88,50209,20.38,73744.5,4.81,3.25,2.81,0,*71
1498186885.11,50210,20.38,73718.3,4.81,3.15,2.69,0,*7C
1498186886.34,50211,20.38,73758.3,4.81,3.07,2.69,0,*7E
1498186887.57,50212,20.44,73724.5,4.81,3.15,2.69,0,*7E
1498186888.8,50213,20.44,73666.8,4.81,3.03,2.59,0,*7B
1498186890.02,50214,20.38,73720.8,4.81,3.15,2.61,0,*70
1498186891.22,50215,20.38,73736.8,4.85,3.11,2.65,0,*75
1498186892.44,50216,20.38,73752.5,4.81,3.03,2.61,0,*75
1498186893.67,50217,20.38,73758.0,4.81,3.07,2.69,0,*78
1498186894.9,50218,20.44,73732.8,4.81,3.15,2.69,0,*74
1498186896.13,50219,20.44,73716.5,4.81,3.15,2.69,0,*75
1498186897.34,50220,20.38,73748.8,4.81,3.15,2.61,0,*77
1498186898.56,50221,20.38,73734.3,4.81,3.07,2.61,0,*75
1498186899.77,50222,20.38,73744.3,4.81,3.07,2.61,0,*76
1498186900.98,50223,20.38,73746.0,4.81,3.03,2.61,0,*73
1498186902.21,50224,20.38,73714.8,4.79,2.91,2.59,0,*72
1498186903.4,50225,20.38,73708.8,4.81,2.95,2.61,0,*7B
1498186904.63,50226,20.38,73736.3,4.81,3.15,2.69,0,*79
1498186905.83,50227,20.38,73708.0,4.81,3.25,2.73,0,*70
1498186907.08,50228,20.38,73730.5,4.79,3.19,2.73,0,*77
1498186908.28,50229,20.38,73746.3,4.81,3.29,2.85,0,*7B
1498186909.49,50230,20.38,73692.3,4.81,3.25,2.81,0,*7B
1498186910.69,50231,20.44,73714.3,4.81,3.25,2.73,0,*77
1498186911.92,50232,20.38,73708.5,4.81,3.33,2.81,0,*7E
1498186913.15,50233,20.38,73696.5,4.81,3.33,2.73,0,*72
1498186914.35,50234,20.38,73696.5,4.81,3.25,2.69,0,*79
1498186915.55,50235,20.38,73662.0,4.81,3.29,2.69,0,*74
1498186916.77,50236,20.38,73704.5,4.85,3.37,2.77,0,*73
1498186918.0,50237,20.38,73694.0,4.85,3.37,2.85,0,*7F
1498186919.22,50238,20.38,73654.8,4.85,3.33,2.77,0,*79
1498186920.45,50239,20.38,73666.8,4.85,3.45,2.89,0,*78
1498186921.7,50240,20.38,73636.5,4.87,3.37,2.85,0,*7D
1498186922.87,50241,20.38,73696.5,4.85,3.55,2.99,0,*77
1498186924.04,50242,20.38,73646.0,4.85,3.55,2.99,0,*74
1498186925.28,50243,20.38,73656.0,4.87,3.79,3.29,0,*73
1498186926.5,50244,20.38,73706.3,4.89,3.79,3.33,0,*71
1498186927.7,50245,20.38,73680.0,4.85,3.55,3.07,0,*75
1498186928.96,50246,20.38,73716.3,4.87,3.67,3.07,0,*75
1498186930.18,50247,20.38,73672.3,4.87,3.59,3.11,0,*7E
1498186931.38,50248,20.38,73684.8,4.87,3.59,2.99,0,*70
1498186932.61,50249,20.38,73722.3,4.87,3.59,3.11,0,*70
1498186933.81,50250,20.38,73702.0,4.89,3.63,3.11,0,*7F
1498186935.03,50251,20.38,73734.0,4.89,3.53,3.03,0,*7E
1498186936.22,50252,20.38,73718.3,4.89,3.63,3.11,0,*7D
1498186937.45,50253,20.38,73744.3,4.91,3.63,3.03,0,*76
1498186938.67,50254,20.38,73726.8,4.89,3.53,2.81,0,*70
1498186939.93,50255,20.38,73728.8,4.91,3.45,2.81,0,*7F
1498186941.17,50256,20.38,73712.0,4.91,3.37,2.85,0,*7D
1498186942.4,50257,20.38,73720.3,4.89,3.33,2.77,0,*7C
1498186943.62,50258,20.38,73716.0,4.89,3.37,2.69,0,*78
1498186944.84,50259,20.38,73718.3,4.89,3.37,2.69,0,*79
1498186946.05,50260,20.38,73722.0,4.89,3.37,2.69,0,*73
1498186947.28,50261,20.38,73704.8,4.89,3.37,2.69,0,*72
1498186948.48,50262,20.38,73718.3,4.89,3.37,2.65,0,*7D
1498186949.68,50263,20.38,73712.3,4.89,3.37,2.65,0,*7C
1498186950.92,50264,20.38,73718.5,4.91,3.37,2.69,0,*7E
1498186952.18,50265,20.38,73700.8,4.91,3.41,2.69,0,*7E
1498186953.41,50266,20.38,73676.3,4.91,3.75,2.95,0,*79
1498186954.66,50267,20.38,73706.5,4.91,3.75,3.07,0,*72
1498186955.89,50268,20.38,73740.5,4.91,3.55,2.81,0,*70
1498186957.14,50269,20.38,73748.3,4.91,3.41,2.73,0,*79
1498186958.38,50270,20.38,73754.3,4.91,3.53,2.73,0,*72
1498186959.64,50271,20.38,73750.5,4.91,3.41,2.69,0,*7B
1498186960.89,50272,20.38,73746.5,4.91,3.41,2.69,0,*78
1498186962.14,50273,20.38,73708.3,4.91,3.41,2.73,0,*72
1498186963.36,50274,20.38,73764.5,4.89,3.45,2.85,0,*71
1498186964.61,50275,20.38,73778.5,4.91,3.37,2.69,0,*7E
1498186965.87,50276,20.38,73746.8,4.93,3.41,2.73,0,*75
1498186967.1,50277,20.38,73760.3,4.93,3.29,2.69,0,*71
1498186968.36,50278,20.38,73770.5,4.93,3.41,2.73,0,*7B
1498186969.62,50279,20.38,73786.3,4.93,3.41,2.85,0,*73
1498186970.85,50280,20.38,73738.5,4.95,3.49,2.85,0,*7B
1498186972.1,50281,20.38,73738.0,4.93,3.53,2.85,0,*77
1498186973.35,50282,20.38,73728.0,4.93,3.45,2.85,0,*73
1498186974.61,50283,20.38,73746.3,4.93,3.45,2.85,0,*72
1498186975.84,50284,20.38,73750.8,4.93,3.55,3.03,0,*7B
1498186977.07,50285,20.38,73716.8,4.93,3.53,2.91,0,*76
1498186978.32,50286,20.38,73746.0,4.93,3.45,2.85,0,*77
1498186979.58,50287,20.38,73740.5,4.93,3.45,2.81,0,*72
1498186980.83,50288,20.38,73730.8,4.93,3.53,2.85,0,*7E
1498186982.09,50289,20.38,73694.3,4.93,3.53,3.03,0,*70
1498186983.32,50290,20.38,73704.0,4.93,3.55,3.03,0,*7E
1498186984.55,50291,20.38,73706.5,4.95,3.71,3.19,0,*74
1498186985.78,50292,20.38,73734.8,4.95,3.67,3.23,0,*79
1498186987.01,50293,20.38,73750.0,4.95,3.67,3.19,0,*71
1498186988.25,50294,20.38,73716.0,4.95,3.67,3.07,0,*79
1498186989.45,50295,20.38,73758.3,4.97,3.59,2.99,0,*71
1498186990.71,50296,20.38,73756.8,4.97,3.67,3.11,0,*7E
1498186991.94,50297,20.38,73714.0,4.99,3.71,3.15,0,*72
1498186993.15,50298,20.38,73688.8,4.99,3.81,3.23,0,*77
1498186994.37,50299,20.38,73714.5,4.97,3.55,3.07,0,*77
1498186995.6,50300,20.38,73712.3,4.97,3.71,3.29,0,*7C
1498186996.83,50301,20.38,73738.5,4.97,3.71,3.29,0,*7D
1498186998.01,50302,20.38,73708.8,4.99,3.63,2.99,0,*79
1498186999.19,50303,20.38,73730.0,4.99,3.59,2.99,0,*71
1498187000.43,50304,20.38,73710.5,4.97,3.45,2.85,0,*78
1498187001.64,50305,20.38,73708.0,4.99,3.49,2.91,0,*7E
1498187002.84,50306,20.31,73740.5,4.99,3.59,3.03,0,*76
1498187004.02,50307,20.38,73708.8,4.99,3.55,2.95,0,*75
1498187005.2,50308,20.38,73700.5,4.99,3.59,2.99,0,*7A
1498187006.42,50309,20.38,73702.5,4.97,3.55,3.03,0,*7B
1498187007.63,50310,20.38,73684.5,4.99,3.63,3.03,0,*78
1498187008.81,50311,20.38,73690.3,4.99,3.59,2.99,0,*72
1498187010.04,50312,20.38,73638.3,4.99,3.71,3.11,0,*7A
1498187011.25,50313,20.38,73638.5,4.99,3.81,3.15,0,*70
1498187012.48,50314,20.38,73658.3,4.99,4.01,3.41,0,*79
1498187013.72,50315,20.38,73612.8,4.99,4.05,3.45,0,*78
1498187014.98,50316,20.31,73658.3,5.01,4.01,3.49,0,*73
1498187016.18,50317,20.31,73628.5,5.03,4.07,3.49,0,*76
1498187017.39,50318,20.31,73648.0,5.03,4.23,3.67,0,*73
1498187018.59,50319,20.31,73684.8,5.03,4.23,3.67,0,*72
1498187019.81,50320,20.31,73718.0,5.09,4.33,3.79,0,*7C
1498187021.04,50321,20.38,73716.8,5.09,4.33,3.71,0,*75
1498187022.27,50322,20.31,73710.8,5.09,4.33,3.67,0,*71
1498187023.49,50323,20.38,73700.5,5.09,4.23,3.67,0,*71
1498187024.72,50324,20.31,73718.5,5.09,4.27,3.67,0,*72
1498187025.9,50325,20.31,73708.8,5.11,4.37,3.63,0,*7F
1498187027.1,50326,20.31,73728.0,5.13,4.57,3.89,0,*7C
1498187028.3,50327,20.31,73734.3,5.17,4.49,3.89,0,*76
1498187029.5,50328,20.31,73730.8,5.15,4.33,3.75,0,*75
1498187030.68,50329,20.38,73776.5,5.15,4.15,3.55,0,*72
1498187031.89,50330,20.31,73784.3,5.15,3.89,3.37,0,*7C
1498187033.09,50331,20.31,73786.3,5.15,4.11,3.49,0,*72
1498187034.35,50332,20.31,73716.3,5.17,4.01,3.41,0,*7A
1498187035.57,50333,20.31,73718.8,5.15,4.01,3.37,0,*78
1498187036.76,50334,20.31,73776.0,5.15,3.93,3.29,0,*7C
1498187037.98,50335,20.31,73722.3,5.15,4.01,3.19,0,*72
1498187039.2,50336,20.31,73704.8,5.17,3.81,3.07,0,*73
1498187040.43,50337,20.31,73726.5,5.17,3.71,2.95,0,*77
1498187041.6,50338,20.31,73754.0,5.15,3.63,2.91,0,*7D
1498187042.83,50339,20.31,73742.0,5.17,3.79,2.95,0,*71
1498187044.03,50340,20.31,73708.3,5.17,3.81,2.99,0,*74
1498187045.26,50341,20.31,73710.0,5.17,3.79,2.95,0,*7E
1498187046.49,50342,20.31,73712.0,5.15,3.67,2.81,0,*75
1498187047.75,50343,20.31,73712.8,5.17,3.71,2.81,0,*71
1498187048.93,50344,20.31,73726.3,5.15,3.59,2.65,0,*74
1498187050.19,50345,20.31,73714.0,5.17,3.67,2.73,0,*7D
1498187051.39,50346,20.31,73688.8,5.15,3.59,2.59,0,*79
1498187052.64,50347,20.31,73748.5,5.17,3.53,2.59,0,*70
1498187053.88,50348,20.31,73744.3,5.17,3.53,2.69,0,*7C
1498187055.11,50349,20.31,73746.8,5.17,3.53,2.61,0,*75
1498187056.34,50350,20.31,73758.0,5.15,3.49,2.59,0,*7F
1498187057.56,50351,20.31,73754.8,5.15,3.53,2.59,0,*75
1498187058.76,50352,20.31,73728.8,5.17,3.63,2.61,0,*7C
1498187059.95,50353,20.31,73748.0,5.15,3.59,2.65,0,*72
1498187061.15,50354,20.31,73766.3,5.15,3.59,2.59,0,*7A
1498187062.38,50355,20.31,73744.8,5.17,3.67,2.61,0,*7F
1498187063.56,50356,20.31,73716.5,5.15,3.63,2.65,0,*7E
1498187064.77,50357,20.31,73740.5,5.15,3.63,2.59,0,*70
1498187065.97,50358,20.31,73748.5,5.15,3.63,2.59,0,*7F
1498187067.19,50359,20.31,73736.3,5.17,3.55,2.59,0,*79
1498187068.44,50360,20.31,73750.5,5.17,3.53,2.51,0,*7D
1498187069.7,50361,20.31,73756.5,5.17,3.41,2.39,0,*71
1498187070.88,50362,20.31,73730.0,5.15,3.59,2.65,0,*70
1498187072.13,50363,20.31,73710.8,5.17,3.71,2.81,0,*73
1498187073.36,50364,20.31,73702.3,5.17,3.81,2.89,0,*73
1498187074.6,50365,20.31,73698.8,5.15,3.75,2.89,0,*7B
1498187075.85,50366,20.31,73710.8,5.17,3.71,2.81,0,*76
1498187077.08,50367,20.31,73738.0,5.17,3.55,2.59,0,*74
1498187078.3,50368,20.31,73722.3,5.17,3.55,2.51,0,*73
1498187079.53,50369,20.31,73728.3,5.19,3.33,2.39,0,*72
1498187080.78,50370,20.31,73720.0,5.17,3.33,2.39,0,*74
1498187081.95,50371,20.31,73718.8,5.15,3.25,2.35,0,*7C
1498187083.21,50372,20.31,73718.0,5.17,3.33,2.51,0,*78
1498187084.45,50373,20.31,73720.5,5.17,3.53,2.59,0,*77
1498187085.69,50374,20.31,73732.5,5.17,3.45,2.61,0,*7C
1498187086.92,50375,20.31,73734.8,5.17,3.41,2.61,0,*79
1498187088.15,50376,20.31,73754.8,5.19,3.33,2.59,0,*7A
1498187089.35,50377,20.31,73752.3,5.19,3.33,2.61,0,*70
1498187090.58,50378,20.31,73728.3,5.17,3.33,2.61,0,*71
1498187091.83,50379,20.31,73714.8,5.17,3.41,2.69,0,*7D
1498187093.06,50380,20.31,73694.5,5.17,3.55,2.81,0,*78
1498187094.28,50381,20.31,73716.3,5.17,3.55,2.81,0,*79
1498187095.48,50382,20.31,73748.0,5.17,3.63,2.91,0,*7E
1498187096.74,50383,20.31,73690.3,5.17,3.41,2.81,0,*7E
1498187097.94,50384,20.31,73652.8,5.19,3.33,2.61,0,*7C
1498187099.17,50385,20.31,73682.5,5.19,3.33,2.59,0,*76
1498187100.39,50386,20.31,73716.0,5.19,3.33,2.69,0,*76
1498187101.62,50387,20.31,73738.0,5.19,3.33,2.81,0,*71
1498187102.83,50388,20.31,73754.0,5.19,3.33,2.61,0,*70
1498187104.05,50389,20.31,73754.3,5.19,3.33,2.73,0,*72
1498187105.31,50390,20.31,73738.8,5.17,3.41,2.73,0,*71
1498187106.53,50391,20.31,73738.8,5.19,3.53,2.73,0,*7D
1498187107.76,50392,20.31,73730.8,5.21,3.45,2.65,0,*75
1498187108.99,50393,20.31,73748.5,5.19,3.41,2.51,0,*7C
1498187110.25,50394,20.31,73776.5,5.21,3.37,2.51,0,*71
1498187111.47,50395,20.31,73740.8,5.19,3.45,2.69,0,*75
1498187112.68,50396,20.31,73704.8,5.19,3.63,2.81,0,*74
1498187113.88,50397,20.31,73708.0,5.19,3.71,2.95,0,*73
1498187115.08,50398,20.31,73722.0,5.21,3.81,2.99,0,*74
1498187116.27,50399,20.31,73738.3,5.21,3.81,2.99,0,*75
1498187117.53,50400,20.31,73730.5,5.21,3.67,2.77,0,*7A
1498187118.75,50401,20.31,73692.0,5.25,3.37,2.55,0,*7A
1498187119.98,50402,20.31,73664.8,5.25,3.41,2.47,0,*7B
1498187121.19,50403,20.31,73676.3,5.23,3.25,2.51,0,*79
1498187122.42,50404,20.31,73676.3,5.25,3.41,2.55,0,*7E
1498187123.65,50405,20.31,73670.8,5.25,3.41,2.59,0,*73
1498187124.88,50406,20.31,73690.8,5.25,3.37,2.47,0,*7E
1498187126.11,50407,20.31,73704.3,5.25,3.41,2.55,0,*7D
1498187127.33,50408,20.31,73702.3,5.29,3.23,2.39,0,*70
1498187128.56,50409,20.31,73694.8,5.29,3.19,2.25,0,*75
1498187129.76,50410,20.31,73696.0,5.25,3.15,2.31,0,*78
1498187130.99,50411,20.31,73708.8,5.25,3.07,2.21,0,*7B
1498187132.19,50412,20.31,73722.8,5.25,3.07,2.31,0,*79
1498187133.42,50413,20.25,73682.0,5.25,3.19,2.43,0,*72
1498187134.63,50414,20.31,73662.8,5.25,3.15,2.35,0,*78
1498187135.85,50415,20.31,73684.3,5.25,3.19,2.43,0,*74
1498187137.06,50416,20.31,73694.8,5.25,3.25,2.55,0,*7F
1498187138.29,50417,20.31,73740.3,5.25,3.15,2.55,0,*7D
1498187139.5,50418,20.31,73710.8,5.25,3.25,2.43,0,*76
1498187140.7,50419,20.31,73750.3,5.25,3.15,2.35,0,*75
1498187141.93,50420,20.31,73750.5,5.29,3.23,2.39,0,*7A
1498187143.16,50421,20.25,73682.5,5.25,3.41,2.69,0,*76
1498187144.36,50422,20.31,73660.8,5.29,3.63,2.85,0,*7B
1498187145.61,50423,20.31,73664.8,5.31,3.41,2.73,0,*7A
1498187146.82,50424,20.31,73668.3,5.29,3.67,2.91,0,*7C
1498187148.05,50425,20.25,73686.3,5.31,3.89,3.33,0,*7D
1498187149.3,50426,20.31,73692.3,5.31,4.01,3.33,0,*79
1498187150.53,50427,20.31,73682.0,5.33,4.05,3.33,0,*7E
1498187151.78,50428,20.31,73704.8,5.35,3.49,2.73,0,*7D
1498187153.01,50429,20.31,73728.0,5.33,3.23,2.43,0,*75
1498187154.25,50430,20.31,73742.5,5.33,3.15,2.43,0,*78
1498187155.5,50431,20.31,73702.3,5.35,3.37,2.77,0,*78
1498187156.71,50432,20.31,73676.8,5.33,3.67,2.95,0,*74
1498187157.96,50433,20.25,73672.0,5.35,3.71,3.07,0,*7E
1498187159.19,50434,20.25,73726.0,5.35,3.81,3.11,0,*71
1498187160.45,50435,20.25,73712.5,5.35,3.67,3.07,0,*7F
1498187161.68,50436,20.25,73694.5,5.41,3.75,3.23,0,*7A
1498187162.88,50437,20.25,73692.8,5.37,4.19,3.49,0,*7B
1498187164.08,50438,20.31,73720.0,5.37,3.89,3.19,0,*7F
1498187165.26,50439,20.25,73706.0,5.41,4.27,3.63,0,*71
1498187166.48,50440,20.31,73714.5,5.41,4.71,4.01,0,*7F
1498187167.71,50441,20.31,73706.8,5.43,4.59,3.93,0,*7A
1498187168.95,50442,20.25,73706.8,5.43,4.37,3.67,0,*7A
1498187170.14,50443,20.25,73714.3,5.45,3.97,3.29,0,*7A
1498187171.34,50444,20.25,73718.3,5.49,3.59,2.89,0,*78
1498187172.54,50445,20.25,73732.3,5.45,3.25,2.59,0,*73
1498187173.75,50446,20.31,73768.3,5.45,3.23,2.65,0,*79
1498187174.93,50447,20.25,73748.8,5.49,3.29,2.65,0,*7E
1498187176.15,50448,20.25,73746.0,5.45,3.75,3.11,0,*76
1498187177.33,50449,20.25,73744.5,5.45,4.41,3.81,0,*7E
1498187178.55,50450,20.25,73720.3,5.45,4.67,4.01,0,*7D
1498187179.75,50451,20.25,73710.3,5.51,4.37,3.85,0,*77
1498187181.01,50452,20.25,73722.8,5.51,4.71,4.05,0,*79
1498187182.21,50453,20.25,73716.5,5.53,4.37,3.79,0,*74
1498187183.37,50454,20.25,73712.0,5.53,4.81,4.19,0,*7F
1498187184.58,50455,20.25,73740.0,5.59,4.93,4.41,0,*7A
1498187185.76,50456,20.25,73724.8,5.59,4.33,3.93,0,*7B
1498187186.93,50457,20.25,73736.0,5.59,4.23,3.63,0,*74
1498187188.13,50458,20.25,73752.5,5.61,3.89,3.25,0,*75
1498187189.36,50459,20.25,73732.5,5.61,4.07,3.37,0,*76
1498187190.56,50460,20.25,73750.8,5.63,4.27,3.75,0,*7A
1498187191.73,50461,20.25,73730.8,5.63,4.23,3.63,0,*78
1498187192.96,50462,20.25,73754.8,5.63,3.97,3.41,0,*73
1498187194.15,50463,20.25,73744.3,5.69,4.07,3.59,0,*7F
1498187195.37,50464,20.31,73742.5,5.69,3.81,3.37,0,*79
1498187196.6,50465,20.25,73682.8,5.69,3.71,3.25,0,*74
1498187197.84,50466,20.25,73718.3,5.69,3.97,3.49,0,*75
1498187199.09,50467,20.25,73738.8,5.69,3.97,3.49,0,*74
1498187200.34,50468,20.25,73722.3,5.69,3.75,3.33,0,*7A
1498187201.54,50469,20.25,73738.0,5.71,3.71,3.25,0,*71
1498187202.76,50470,20.25,73748.5,5.73,3.59,3.15,0,*72
1498187203.99,50471,20.25,73658.0,5.73,3.41,2.95,0,*73
1498187205.2,50472,20.25,73722.5,5.73,3.55,3.07,0,*7F
1498187206.42,50473,20.25,73750.0,5.73,3.55,3.07,0,*7E
1498187207.64,50474,20.25,73698.5,5.73,3.37,2.91,0,*73
1498187208.83,50475,20.25,73742.3,5.73,3.25,2.95,0,*75
1498187210.05,50476,20.25,73770.5,5.73,3.29,2.85,0,*7B
1498187211.29,50477,20.25,73728.8,5.73,3.19,2.69,0,*7B
1498187212.52,50478,20.25,73768.5,5.73,3.25,2.81,0,*7D
1498187213.72,50479,20.25,73784.3,5.75,3.19,2.65,0,*7F
1498187214.97,50480,20.25,73744.5,5.73,3.07,2.59,0,*7F
1498187216.22,50481,20.25,73766.5,5.73,3.07,2.59,0,*7E
1498187217.44,50482,20.25,73696.8,5.73,2.95,2.47,0,*78
1498187218.64,50483,20.25,73750.0,5.73,2.91,2.35,0,*78
1498187219.83,50484,20.25,73748.5,5.73,2.95,2.35,0,*7B
1498187221.08,50485,20.25,73748.3,5.73,2.81,2.25,0,*7E
1498187222.3,50486,20.25,73680.0,5.73,2.91,2.43,0,*7C
1498187223.52,50487,20.25,73666.3,5.73,2.95,2.55,0,*7E
1498187224.77,50488,20.25,73702.5,5.73,3.03,2.59,0,*73
1498187225.99,50489,20.25,73690.3,5.73,2.91,2.47,0,*77
1498187227.21,50490,20.25,73700.0,5.73,2.85,2.35,0,*7F
1498187228.45,50491,20.25,73730.0,5.73,2.73,2.25,0,*76
1498187229.67,50492,20.25,73742.0,5.73,2.81,2.35,0,*79
1498187230.89,50493,20.25,73724.8,5.73,2.65,2.25,0,*73
1498187232.11,50494,20.25,73742.3,5.73,2.73,2.35,0,*72
1498187233.33,50495,20.25,73730.3,5.73,2.65,2.25,0,*75
1498187234.58,50496,20.25,73700.3,5.73,2.59,2.25,0,*79
1498187235.82,50497,20.25,73740.8,5.73,2.55,2.21,0,*70
1498187237.04,50498,20.25,73738.5,5.73,2.91,2.55,0,*74
1498187238.23,50499,20.25,73758.0,5.75,2.69,2.35,0,*72
1498187239.43,50500,20.25,73748.5,5.75,2.65,2.25,0,*7E
1498187240.62,50501,20.25,73708.8,5.75,2.69,2.35,0,*72
1498187241.84,50502,20.25,73758.3,5.75,2.55,2.25,0,*7F
1498187243.06,50503,20.25,73770.0,5.75,2.43,2.21,0,*7D
1498187244.28,50504,20.25,73770.3,5.73,2.35,2.21,0,*7D
1498187245.5,50505,20.25,73746.8,5.75,2.47,2.21,0,*7F
1498187246.75,50506,20.25,73744.0,5.73,2.47,2.25,0,*7E
1498187247.99,50507,20.25,73762.3,5.73,2.47,2.21,0,*7B
1498187249.23,50508,20.25,73752.0,5.73,2.55,2.21,0,*77
1498187250.45,50509,20.25,73712.5,5.73,2.35,2.13,0,*71
1498187251.7,50510,20.25,73742.8,5.73,2.43,2.21,0,*79
1498187252.92,50511,20.25,73744.0,5.73,2.31,2.13,0,*7C
1498187254.12,50512,20.25,73738.5,5.73,2.65,2.35,0,*7A
1498187255.36,50513,20.25,73780.8,5.73,2.69,2.43,0,*76
1498187256.56,50514,20.25,73782.8,5.73,2.65,2.35,0,*7C
1498187257.78,50515,20.25,73692.8,5.73,3.25,3.03,0,*7C
1498187259.0,50516,20.25,73698.0,5.73,3.19,2.95,0,*7E
1498187260.22,50517,20.25,73726.8,5.77,2.99,2.73,0,*7A
1498187261.44,50518,20.25,73720.5,5.77,2.95,2.69,0,*72
1498187262.66,50519,20.25,73728.5,5.77,2.99,2.89,0,*71
1498187263.91,50520,20.25,73702.3,5.77,3.33,3.07,0,*7D
1498187265.13,50521,20.25,73676.8,5.81,3.15,2.99,0,*77
1498187266.35,50522,20.25,73678.0,5.81,3.59,3.49,0,*70
1498187267.58,50523,20.25,73674.3,5.81,3.75,3.59,0,*7E
1498187268.8,50524,20.25,73638.3,5.85,4.23,3.97,0,*7B
1498187270.02,50525,20.25,73680.8,5.85,4.07,3.79,0,*7C
1498187271.23,50526,20.25,73716.3,5.91,3.85,3.71,0,*7F
1498187272.46,50527,20.25,73734.5,5.91,3.97,3.75,0,*79
1498187273.67,50528,20.25,73752.3,5.91,3.59,3.33,0,*76
1498187274.94,50529,20.25,73766.5,5.93,3.67,3.33,0,*78
1498187276.18,50530,20.25,73714.3,5.95,3.41,3.19,0,*7A
1498187277.38,50531,20.25,73722.8,5.95,3.19,2.91,0,*77
1498187278.57,50532,20.25,73734.3,5.95,3.29,2.91,0,*77
1498187279.76,50533,20.25,73754.5,5.95,2.95,2.65,0,*7B
1498187280.99,50534,20.25,73760.0,5.95,2.81,2.55,0,*7A
1498187282.23,50535,20.25,73764.5,5.95,3.07,2.69,0,*7B
1498187283.47,50536,20.25,73760.5,5.95,2.81,2.47,0,*7B
1498187284.67,50537,20.25,73738.3,5.95,2.69,2.35,0,*79
1498187285.9,50538,20.25,73724.0,5.95,2.89,2.55,0,*7E
1498187287.14,50539,20.25,73758.0,5.95,3.03,2.77,0,*7C
1498187288.37,50540,20.25,73750.0,5.95,2.77,2.55,0,*70
1498187289.6,50541,20.25,73736.8,5.97,2.69,2.35,0,*7A
1498187290.81,50542,20.25,73700.3,5.97,2.65,2.35,0,*75
1498187292.06,50543,20.25,73712.5,5.97,2.89,2.55,0,*70
1498187293.32,50544,20.25,73716.8,5.97,2.43,2.05,0,*74
1498187294.58,50545,20.25,73688.5,5.97,2.59,2.21,0,*78
1498187295.81,50546,20.25,73718.0,5.97,2.59,2.31,0,*7A
1498187297.04,50547,20.25,73764.5,5.97,2.59,2.35,0,*7F
1498187298.27,50548,20.25,73766.5,5.97,2.59,2.31,0,*74
1498187299.47,50549,20.25,73762.5,5.97,2.65,2.35,0,*7E
1498187300.74,50550,20.25,73762.5,5.97,2.59,2.43,0,*78
1498187301.97,50551,20.25,73730.0,5.97,2.91,2.69,0,*75
1498187303.17,50552,20.25,73678.3,5.99,2.99,2.85,0,*72
1498187304.39,50553,20.25,73728.3,5.99,2.91,2.73,0,*72
1498187305.6,50554,20.25,73756.5,6.03,2.85,2.65,0,*77
1498187306.83,50555,20.25,73708.0,6.01,3.25,3.11,0,*7D
1498187308.09,50556,20.25,73734.0,6.01,3.11,2.77,0,*78
1498187309.33,50557,20.25,73740.0,6.03,3.03,2.85,0,*75
1498187310.54,50558,20.25,73766.3,6.03,2.95,2.73,0,*7D
1498187311.72,50559,20.25,73756.5,6.03,2.61,2.31,0,*71
1498187312.9,50560,20.25,73720.8,6.03,2.61,2.31,0,*7B
1498187314.11,50561,20.25,73742.8,6.03,2.65,2.39,0,*76
1498187315.31,50562,20.25,73718.5,6.03,2.55,2.31,0,*7E
1498187316.55,50563,20.25,73716.3,6.03,2.77,2.51,0,*79
1498187317.81,50564,20.25,73734.5,6.05,2.81,2.55,0,*75
1498187319.04,50565,20.25,73714.3,6.07,2.73,2.47,0,*78
1498187320.27,50566,20.25,73698.0,6.07,2.73,2.47,0,*7B
1498187321.53,50567,20.25,73660.5,6.05,2.47,2.17,0,*7A
1498187322.79,50568,20.25,73644.8,6.05,2.69,2.43,0,*78
1498187324.05,50569,20.25,73698.8,6.05,2.81,2.43,0,*7F
1498187325.28,50570,20.25,73646.8,6.07,2.73,2.47,0,*7C
1498187326.49,50571,20.25,73658.5,6.07,3.19,2.91,0,*7B
1498187327.7,50572,20.25,73684.3,6.07,3.53,3.29,0,*74
1498187328.93,50573,20.25,73726.5,6.13,3.37,3.25,0,*7E
1498187330.16,50574,20.25,73738.0,6.13,3.45,3.25,0,*7C
1498187331.39,50575,20.25,73720.5,6.13,3.79,3.55,0,*75
1498187332.62,50576,20.25,73724.3,6.17,3.59,3.37,0,*74
1498187333.82,50577,20.25,73744.3,6.17,3.25,2.91,0,*73